Location: Brede
(50.9167°N, 0.6000°E)
Time: 03:09:26
(UTC+00:00)

Cosmos 2228 - Pass Details

Date: 08 August 2020
Orbit: 588 x 619 km, 82.5° (Epoch: 27 September)

Event Time Altitude Azimuth Distance (km) Brightness Sun altitude
Rises 03:43:46 0° 177° (S) 2,864 6.1 -7.6°
Reaches altitude 10° 03:45:59 10° 174° (S) 1,968 5.3 -7.3°
Maximum altitude 03:50:16 58° 96° (E) 724 3.7 -6.8°
Drops below altitude 10° 03:54:36 10° 17° (NNE) 1,997 6.6 -6.2°
Sets 03:56:52 0° 14° (NNE) 2,910 7.3 -5.9°
